Regional Weather Roundup
Issued by NWS Upton, NY

Current Version | Previous Version | Text Only | Print | Product List | Glossary Off
Versions: 1 2 3 4 5 6 7 8 9 10 11 12 13 14 15 16 17 18 19 20 21 22 23 24 25 26 27 28 29 30 31 32 33 34 35 36 37 38 39 40 41 42 43 44 45 46 47 48 49 50
000 ASUS41 KOKX 260105 RWROKX REGIONAL WEATHER ROUNDUP NATIONAL WEATHER SERVICE NEW YORK NY 800 PM EST TUE NOV 25 2014 NOTE: "FAIR" INDICATES FEW OR NO CLOUDS BELOW 12,000 FEET WITH NO SIGNIFICANT WEATHER AND/OR OBSTRUCTIONS TO VISIBILITY. NYZ071-072-176-178-NJZ106-104-260200- NEW YORK CITY METRO AREA CITY SKY/WX TMP DP RH WIND PRES REMARKS CENTRAL PARK MOCLDY 52 29 41 W6 30.11R LAGUARDIA APRT CLOUDY 53 28 38 W14 30.08R KENNEDY INTL MOCLDY 49 35 58 SW8 30.10R NEWARK/LIBERTY MOCLDY 50 31 48 W9 30.09R BRNX BOT. GARD N/A N/A N/A N/A W12 30.10R TETERBORO MOCLDY 51 29 42 SW6 30.08R $$ NYZ177-179-078>081-260200- LONG ISLAND NEW YORK CITY SKY/WX TMP DP RH WIND PRES REMARKS FARMINGDALE NOT AVBL ISLIP CLOUDY 48 34 58 SW6 30.08R SHIRLEY MOCLDY 48 34 58 SW5 30.10R WESTHAMPTON MOCLDY 41 36 82 CALM 30.11R MONTAUK POINT N/A 51 34 52 SW5 30.10R $$ NYZ052-065-067-260200- HUDSON VALLEY CITY SKY/WX TMP DP RH WIND PRES REMARKS WHITE PLAINS PTCLDY 48 28 46 W6 30.06R NEWBURGH CLEAR 43 30 61 W9 30.08 MONTGOMERY MOCLDY 35 28 75 CALM 30.07R POUGHKEEPSIE MOCLDY 40 30 67 CALM 30.08R ALBANY MOCLDY 43 25 49 SW7 30.05R $$ NJZ001-105-106-008-010-013-015-019>022-104-260200- NEW JERSEY CITY SKY/WX TMP DP RH WIND PRES REMARKS NEWARK/LIBERTY MOCLDY 50 31 48 W9 30.09R TETERBORO MOCLDY 51 29 42 SW6 30.08R CALDWELL MOCLDY 45 28 51 CALM 30.09R MORRISTOWN MOCLDY 39 32 75 CALM 30.01F SOMERVILLE MOCLDY 39 31 72 CALM 30.09R SUSSEX PTCLDY 36 29 75 CALM 30.09R ANDOVER N/A 36 33 89 CALM 30.09R TRENTON MOCLDY 47 29 49 CALM 30.10R MILLVILLE CLOUDY 45 38 76 CALM 30.13R ATLANTIC CITY CLOUDY 49 36 61 SW3 30.13R WRIGHTSTOWN CLOUDY 46 32 58 SW3 30.10R TOMS RIVER CLOUDY 45 37 76 CALM 30.12R BELMAR CLOUDY 48 30 49 W3 30.10R $$ PAZ047>061-062-071-260200- EASTERN PENNSYLVANIA CITY SKY/WX TMP DP RH WIND PRES REMARKS PHILADELPHIA CLOUDY 49 31 49 W8 30.13R ALLENTOWN PTCLDY 44 27 51 W3 30.10R SCRANTON PTCLDY 41 27 57 S7 30.09R $$ CTZ002-004>006-009-010-012-RIZ004-006-007-MAZ004-011-015-260200- SOUTHERN NEW ENGLAND IN CT CITY SKY/WX TMP DP RH WIND PRES REMARKS BRADLEY INTL MOCLDY 45 28 51 SW6 30.04R HARTFORD MOCLDY 43 30 60 CALM 30.06R DANBURY MOCLDY 37 30 75 CALM 30.08R WTRBRY/OXFORD MOCLDY 43 25 49 CALM 30.08R BRIDGEPORT MOCLDY 48 41 76 CALM 30.07R MERIDEN MOCLDY 38 32 79 CALM 30.07R NEW HAVEN MOCLDY 51 38 60 SW3 30.07R CHESTER FAIR 46 30 53 W5 30.07R GROTON MOCLDY 49 36 61 W5 30.07R WILLIMANTIC CLOUDY 41 31 67 CALM 30.05R IN RI CITY SKY/WX TMP DP RH WIND PRES REMARKS PROVIDENCE CLOUDY 50 28 42 W6 30.05R BLOCK ISLAND CLOUDY 52 34 50 W10 30.07R WESTERLY CLOUDY 50 35 56 W3 30.07R IN MA CITY SKY/WX TMP DP RH WIND PRES REMARKS BOSTON CLOUDY 53 27 36 W13 30.04R WORCESTER MOCLDY 42 25 50 W7 30.02R WESTFIELD MOCLDY 38 29 70 CALM 30.04R PROVINCETOWN CLOUDY 50 43 76 W8 30.03R NANTUCKET CLOUDY 53 43 68 W12 30.04R $$ ANZ330-335-338-340-345-350-353-355-260200- COASTAL MARINE OBSERVATIONS STATION/POSITION TIME SKY/WX TEMP WIND PRES VSBY WAVE AIR SEA DIR/SP/G HT/PER (UTC) (F) (DEG/KT/KT) (MB) (MI) (FT/S) NY HARB ENTRANCE 0100 53 54 250/ 10/ 12 1019.6 5/ 9 4S FIRE IS 0100 53 N/A 5/ 9 20S FIRE ISLAND 0100 54 55 280/ 12/ 16 1018.5 6/ 8 23SW MTP 0100 N/A 6/10 HUDSON CANYON 0100 55 59 290/ 8/ 10 1019.0 6/ 9 EXECUTION ROCKS 0100 51 48 260/ 8/ 12 N/A WESTERN LI SOUND 0100 51 230/ 6/ 8 N/A 0 CENTRAL LI SOUND 0000 51 50 240/ 10/ 10 N/A 1/ 2 EASTERN LI SOUND 0000 52 53 260/ 12/ 16 N/A ROBBINS REEF 0100 50 240/ 5/ 6 1017.7 $$ >>>>>>>>>>>>>>>>>>>>>>>>>>>> KEY <<<<<<<<<<<<<<<<<<<<<<<<<<< > < > SKY/WX - SKY CONDITION/PRESENT WEATHER < > TMP - TEMPERATURE IN FAHRENHEIT < > DP - DEWPOINT IN FAHRENHEIT < > RH - RELATIVE HUMIDITY IN PERCENT < > WIND - DIRECTION AND SPEED IN MPH < > PRES - MEAN SEA LEVEL PRESSURE IN INCHES OF HG < > WCI - WIND CHILL INDEX < > VSB - VISIBILITY IN MILES < > HX - HEAT INDEX < > TC - TEMPERATURE IN CELSIUS < > VRB - VARIABLE WIND DIRECTION < > < >>>>>>>>>>>>>>>>>>>>>>>>>>>> KEY <<<<<<<<<<<<<<<<<<<<<<<<<<<

USA.gov is the U.S. government's official web portal to all federal, state and local government web resources and services.